EZY2360 EIDW-EDDL

Flight info

Callsign EZY2360
Flight time 1h 24m
Altitude 39000
Route ENDEQ3J ENDEQ Q36 ALAVA Z195 MALUD UL975 WAL M16 DOLAS L603 LAMSO DCT EVELI DCT PAM P62 PISAP PISAP1A
Aircraft A20N/M-SDE2E3FGHIRWXY/LB1

Departure

Time 2026-05-04 20:25
Airport Dublin Airport (EIDW)

Arrival

Time 2026-05-04 21:49
Airport Düsseldorf Airport (EDDL)
Time Latitude Longitude Altitude Speed Heading
2026-05-04 19:13 53.42378 -6.24440 220 ft 0 kts 135°
2026-05-04 19:58 53.42388 -6.24457 222 ft 3 kts 135°
2026-05-04 19:59 53.42401 -6.24478 223 ft 3 kts 135°
2026-05-04 19:59 53.42414 -6.24500 221 ft 3 kts 135°
2026-05-04 19:59 53.42426 -6.24522 221 ft 2 kts 137°
2026-05-04 19:59 53.42427 -6.24524 221 ft 1 kts 140°
2026-05-04 20:00 53.42443 -6.24538 230 ft 3 kts 176°
2026-05-04 20:00 53.42461 -6.24532 224 ft 3 kts 217°
2026-05-04 20:00 53.42463 -6.24530 224 ft 0 kts 220°
2026-05-04 20:13 53.42449 -6.24553 224 ft 8 kts 230°
2026-05-04 20:13 53.42430 -6.24604 221 ft 0 kts 240°
2026-05-04 20:14 53.42425 -6.24621 222 ft 8 kts 243°
2026-05-04 20:14 53.42364 -6.24777 219 ft 20 kts 246°
2026-05-04 20:14 53.42409 -6.24895 220 ft 17 kts 336°
2026-05-04 20:14 53.42553 -6.24998 226 ft 26 kts 336°
2026-05-04 20:15 53.42710 -6.25113 226 ft 19 kts 337°
2026-05-04 20:15 53.42807 -6.25144 223 ft 15 kts 338°
2026-05-04 20:15 53.42935 -6.25239 225 ft 25 kts 336°
2026-05-04 20:15 53.43099 -6.25359 226 ft 26 kts 336°
2026-05-04 20:16 53.43205 -6.25351 224 ft 13 kts 37°
2026-05-04 20:16 53.43254 -6.25237 224 ft 7 kts 88°
2026-05-04 20:16 53.43243 -6.25082 224 ft 21 kts 95°
2026-05-04 20:16 53.43229 -6.24806 225 ft 23 kts 96°
2026-05-04 20:17 53.43228 -6.24777 224 ft 0 kts 85°
2026-05-04 20:17 53.43224 -6.24726 225 ft 12 kts 102°
2026-05-04 20:17 53.43194 -6.24556 221 ft 19 kts 95°
2026-05-04 20:17 53.43233 -6.24415 221 ft 15 kts 15°
2026-05-04 20:18 53.43337 -6.24350 220 ft 13 kts 66°
2026-05-04 20:18 53.43338 -6.24294 219 ft 0 kts 94°
2026-05-04 20:23 53.43338 -6.24287 219 ft 4 kts 94°
2026-05-04 20:23 53.43332 -6.24145 214 ft 20 kts 95°
2026-05-04 20:23 53.43334 -6.23894 218 ft 17 kts 54°
2026-05-04 20:23 53.43450 -6.23855 208 ft 21 kts 343°
2026-05-04 20:24 53.43495 -6.23959 209 ft 7 kts 269°
2026-05-04 20:24 53.43500 -6.24103 221 ft 28 kts 274°
2026-05-04 20:24 53.43539 -6.24848 225 ft 101 kts 275°
2026-05-04 20:24 53.43622 -6.26452 258 ft 169 kts 274°
2026-05-04 20:25 53.43746 -6.28437 1032 ft 168 kts 278°
2026-05-04 20:25 53.44252 -6.30172 1847 ft 175 kts 314°
2026-05-04 20:25 53.45147 -6.31712 2186 ft 207 kts 320°
2026-05-04 20:25 53.46361 -6.33083 2933 ft 215 kts 335°
2026-05-04 20:26 53.47767 -6.33946 3827 ft 217 kts 345°
2026-05-04 20:26 53.49272 -6.34423 4623 ft 224 kts 351°
2026-05-04 20:26 53.50863 -6.34240 5372 ft 234 kts 18°
2026-05-04 20:26 53.52149 -6.32557 6136 ft 244 kts 56°
2026-05-04 20:27 53.52639 -6.29812 6889 ft 252 kts 84°
2026-05-04 20:27 53.52664 -6.26752 7325 ft 273 kts 91°
2026-05-04 20:27 53.52583 -6.23503 7949 ft 283 kts 92°
2026-05-04 20:27 53.52495 -6.20167 8618 ft 288 kts 91°
2026-05-04 20:28 53.52442 -6.17899 8882 ft 289 kts 91°
2026-05-04 20:28 53.52370 -6.14528 8998 ft 290 kts 91°
2026-05-04 20:28 53.52305 -6.11146 9008 ft 291 kts 91°
2026-05-04 20:28 53.52185 -6.07714 9011 ft 292 kts 97°
2026-05-04 20:29 53.51804 -6.04373 9394 ft 295 kts 102°
2026-05-04 20:29 53.51327 -6.00994 10258 ft 297 kts 103°
2026-05-04 20:29 53.50827 -5.97536 10702 ft 316 kts 103°
2026-05-04 20:29 53.50287 -5.93813 11049 ft 336 kts 103°
2026-05-04 20:30 53.49720 -5.89909 11692 ft 345 kts 103°
2026-05-04 20:30 53.49154 -5.86009 12459 ft 350 kts 103°
2026-05-04 20:30 53.48614 -5.81998 13268 ft 354 kts 102°
2026-05-04 20:30 53.48097 -5.77916 14049 ft 358 kts 102°
2026-05-04 20:31 53.47584 -5.73823 14754 ft 362 kts 102°
2026-05-04 20:31 53.47061 -5.69656 15499 ft 364 kts 102°
2026-05-04 20:31 53.46536 -5.65491 16261 ft 367 kts 102°
2026-05-04 20:31 53.46000 -5.61258 16996 ft 369 kts 102°
2026-05-04 20:32 53.45463 -5.57028 17716 ft 372 kts 102°
2026-05-04 20:32 53.44927 -5.52801 18408 ft 375 kts 101°
2026-05-04 20:32 53.44542 -5.48438 18978 ft 379 kts 96°
2026-05-04 20:32 53.44324 -5.43979 19293 ft 390 kts 93°
2026-05-04 20:33 53.44193 -5.39360 19738 ft 396 kts 92°
2026-05-04 20:33 53.44102 -5.34699 20306 ft 400 kts 91°
2026-05-04 20:33 53.44019 -5.30033 20879 ft 402 kts 91°
2026-05-04 20:33 53.43930 -5.25370 21450 ft 405 kts 91°
2026-05-04 20:34 53.43828 -5.20643 22020 ft 407 kts 91°
2026-05-04 20:34 53.43710 -5.15841 22578 ft 410 kts 91°
2026-05-04 20:34 53.43575 -5.11054 23021 ft 413 kts 92°
2026-05-04 20:34 53.43425 -5.06217 23494 ft 416 kts 92°
2026-05-04 20:35 53.43269 -5.01346 23932 ft 419 kts 92°
2026-05-04 20:35 53.43108 -4.96464 24328 ft 422 kts 92°
2026-05-04 20:35 53.42946 -4.91556 24731 ft 424 kts 92°
2026-05-04 20:35 53.42781 -4.86596 25130 ft 427 kts 92°
2026-05-04 20:36 53.42616 -4.81635 25518 ft 429 kts 92°
2026-05-04 20:36 53.42447 -4.76586 25915 ft 431 kts 92°
2026-05-04 20:36 53.42280 -4.71620 26296 ft 433 kts 92°
2026-05-04 20:36 53.42105 -4.66500 26682 ft 435 kts 92°
2026-05-04 20:37 53.41930 -4.61437 27056 ft 437 kts 92°
2026-05-04 20:37 53.41752 -4.56333 27422 ft 439 kts 92°
2026-05-04 20:37 53.41571 -4.51212 27776 ft 441 kts 92°
2026-05-04 20:37 53.41388 -4.46114 28124 ft 443 kts 92°
2026-05-04 20:38 53.41200 -4.40929 28481 ft 445 kts 92°
2026-05-04 20:38 53.41008 -4.35706 28834 ft 447 kts 92°
2026-05-04 20:38 53.40815 -4.30516 29236 ft 447 kts 92°
2026-05-04 20:38 53.40622 -4.25379 29741 ft 444 kts 92°
2026-05-04 20:39 53.40424 -4.20189 30231 ft 442 kts 92°
2026-05-04 20:39 53.40227 -4.15086 30611 ft 441 kts 92°
2026-05-04 20:39 53.40027 -4.09948 30970 ft 440 kts 92°
2026-05-04 20:39 53.39826 -4.04850 31315 ft 439 kts 92°
2026-05-04 20:40 53.39642 -3.99724 31653 ft 438 kts 90°
2026-05-04 20:40 53.39714 -3.94679 31985 ft 436 kts 85°
2026-05-04 20:40 53.39902 -3.89620 32301 ft 435 kts 84°
2026-05-04 20:40 53.40134 -3.84537 32616 ft 435 kts 84°
2026-05-04 20:41 53.40388 -3.79459 32914 ft 434 kts 84°
2026-05-04 20:41 53.40646 -3.74469 33208 ft 434 kts 83°
2026-05-04 20:41 53.40906 -3.69430 33506 ft 433 kts 84°
2026-05-04 20:41 53.41157 -3.64418 33800 ft 433 kts 85°
2026-05-04 20:42 53.41190 -3.59379 34075 ft 434 kts 90°
2026-05-04 20:42 53.41055 -3.54326 34301 ft 434 kts 91°
2026-05-04 20:42 53.40866 -3.49250 34501 ft 434 kts 92°
2026-05-04 20:42 53.40647 -3.44198 34696 ft 435 kts 93°
2026-05-04 20:43 53.40415 -3.39183 34877 ft 435 kts 93°
2026-05-04 20:43 53.40173 -3.34080 35061 ft 436 kts 93°
2026-05-04 20:43 53.39935 -3.29068 35239 ft 436 kts 93°
2026-05-04 20:43 53.39695 -3.24007 35424 ft 437 kts 93°
2026-05-04 20:44 53.39455 -3.18925 35598 ft 437 kts 93°
2026-05-04 20:44 53.39215 -3.13816 35771 ft 437 kts 93°
2026-05-04 20:44 53.39004 -3.08756 35932 ft 438 kts 93°
2026-05-04 20:44 53.38810 -3.03665 36108 ft 438 kts 92°
2026-05-04 20:45 53.38624 -2.98557 36275 ft 438 kts 92°
2026-05-04 20:45 53.38438 -2.93448 36434 ft 439 kts 92°
2026-05-04 20:45 53.38248 -2.88301 36588 ft 439 kts 92°
2026-05-04 20:45 53.38056 -2.83199 36743 ft 440 kts 93°
2026-05-04 20:46 53.37860 -2.78127 36895 ft 440 kts 93°
2026-05-04 20:46 53.37659 -2.73026 37044 ft 440 kts 93°
2026-05-04 20:46 53.37455 -2.67902 37199 ft 441 kts 93°
2026-05-04 20:46 53.37246 -2.62745 37322 ft 441 kts 93°
2026-05-04 20:47 53.37036 -2.57624 37433 ft 442 kts 93°
2026-05-04 20:47 53.36823 -2.52466 37560 ft 443 kts 94°
2026-05-04 20:47 53.36611 -2.47371 37685 ft 443 kts 94°
2026-05-04 20:47 53.36393 -2.42197 37813 ft 444 kts 94°
2026-05-04 20:48 53.36173 -2.37038 37919 ft 445 kts 94°
2026-05-04 20:48 53.35950 -2.31862 38031 ft 445 kts 94°
2026-05-04 20:48 53.35214 -2.21567 38235 ft 446 kts 99°
2026-05-04 20:49 53.34719 -2.16399 38352 ft 447 kts 99°
2026-05-04 20:49 53.34205 -2.11294 38450 ft 447 kts 100°
2026-05-04 20:49 53.33136 -2.01020 38659 ft 448 kts 100°
2026-05-04 20:50 53.32059 -1.90771 38830 ft 449 kts 100°
2026-05-04 20:50 53.30979 -1.80514 39000 ft 449 kts 100°
2026-05-04 20:51 53.29882 -1.70153 39046 ft 451 kts 101°
2026-05-04 20:51 53.28787 -1.59890 39047 ft 449 kts 101°
2026-05-04 20:52 53.27678 -1.49592 39041 ft 449 kts 101°
2026-05-04 20:52 53.26565 -1.39350 39043 ft 449 kts 101°
2026-05-04 20:53 53.25439 -1.29068 39042 ft 449 kts 101°
2026-05-04 20:53 53.24306 -1.18810 39043 ft 450 kts 101°
2026-05-04 20:54 53.23165 -1.08565 39041 ft 450 kts 101°
2026-05-04 20:54 53.22012 -0.98302 39045 ft 450 kts 101°
2026-05-04 20:55 53.20855 -0.88073 39050 ft 450 kts 101°
2026-05-04 20:55 53.19682 -0.77801 39049 ft 450 kts 101°
2026-05-04 20:56 53.18504 -0.67568 39050 ft 451 kts 101°
2026-05-04 20:56 53.17310 -0.57274 39047 ft 451 kts 102°
2026-05-04 20:57 53.16116 -0.47061 39049 ft 451 kts 102°
2026-05-04 20:57 53.14907 -0.36796 39046 ft 451 kts 102°
2026-05-04 20:58 53.13687 -0.26532 39047 ft 451 kts 102°
2026-05-04 20:58 53.12467 -0.16334 39048 ft 452 kts 102°
2026-05-04 20:59 53.11223 -0.06024 39047 ft 452 kts 102°
2026-05-04 20:59 53.09974 0.04256 39050 ft 452 kts 102°
2026-05-04 21:00 53.08722 0.14476 39047 ft 453 kts 102°
2026-05-04 21:00 53.07457 0.24726 39051 ft 453 kts 102°
2026-05-04 21:01 53.06173 0.35050 39052 ft 453 kts 102°
2026-05-04 21:01 53.04892 0.45274 39055 ft 454 kts 102°
2026-05-04 21:02 53.03595 0.55557 39054 ft 454 kts 102°
2026-05-04 21:02 53.02289 0.65821 39056 ft 454 kts 103°
2026-05-04 21:03 53.00977 0.76065 39056 ft 454 kts 103°
2026-05-04 21:03 52.99649 0.86359 39054 ft 455 kts 103°
2026-05-04 21:04 52.98310 0.96660 39054 ft 455 kts 103°
2026-05-04 21:04 52.97041 1.06930 39059 ft 456 kts 102°
2026-05-04 21:05 52.95861 1.17244 39060 ft 456 kts 101°
2026-05-04 21:05 52.94686 1.27528 39059 ft 456 kts 102°
2026-05-04 21:06 52.93482 1.37878 39060 ft 456 kts 102°
2026-05-04 21:06 52.92260 1.48242 39063 ft 457 kts 102°
2026-05-04 21:07 52.91034 1.58532 39057 ft 457 kts 102°
2026-05-04 21:07 52.89794 1.68862 39053 ft 457 kts 102°
2026-05-04 21:08 52.88548 1.79168 39052 ft 457 kts 102°
2026-05-04 21:08 52.87500 1.87779 39052 ft 457 kts 102°
2026-05-04 21:09 52.86232 1.98122 39052 ft 458 kts 103°
2026-05-04 21:09 52.84960 2.08418 39051 ft 458 kts 103°
2026-05-04 21:10 52.83670 2.18775 39053 ft 458 kts 103°
2026-05-04 21:10 52.82378 2.29077 39052 ft 458 kts 103°
2026-05-04 21:11 52.81074 2.39400 39047 ft 458 kts 103°
2026-05-04 21:11 52.79760 2.49719 39049 ft 458 kts 103°
2026-05-04 21:12 52.78442 2.59994 39046 ft 458 kts 103°
2026-05-04 21:12 52.77114 2.70271 39047 ft 458 kts 103°
2026-05-04 21:13 52.75771 2.80588 39042 ft 458 kts 103°
2026-05-04 21:13 52.74426 2.90847 39042 ft 459 kts 103°
2026-05-04 21:14 52.72831 3.01021 39042 ft 457 kts 110°
2026-05-04 21:14 52.70651 3.10868 39038 ft 457 kts 112°
2026-05-04 21:15 52.68356 3.20609 39029 ft 457 kts 113°
2026-05-04 21:15 52.66021 3.30397 39030 ft 457 kts 113°
2026-05-04 21:16 52.63845 3.40189 39030 ft 458 kts 109°
2026-05-04 21:16 52.62030 3.50282 39027 ft 459 kts 108°
2026-05-04 21:17 52.60283 3.60434 39026 ft 460 kts 107°
2026-05-04 21:17 52.58545 3.70541 39028 ft 460 kts 107°
2026-05-04 21:18 52.56788 3.80651 39024 ft 461 kts 108°
2026-05-04 21:18 52.55014 3.90768 39027 ft 461 kts 108°
2026-05-04 21:19 52.53232 4.00861 39022 ft 461 kts 108°
2026-05-04 21:19 52.51434 4.10996 39018 ft 461 kts 108°
2026-05-04 21:20 52.49635 4.21072 39013 ft 461 kts 108°
2026-05-04 21:20 52.47811 4.31240 39012 ft 461 kts 108°
2026-05-04 21:21 52.45997 4.41292 39014 ft 461 kts 108°
2026-05-04 21:21 52.44168 4.51370 39011 ft 461 kts 108°
2026-05-04 21:22 52.42332 4.61433 39016 ft 461 kts 109°
2026-05-04 21:22 52.40483 4.71513 39019 ft 460 kts 109°
2026-05-04 21:23 52.38632 4.81549 39020 ft 458 kts 109°
2026-05-04 21:23 52.36793 4.91471 39020 ft 456 kts 109°
2026-05-04 21:24 52.34938 5.01418 39012 ft 456 kts 109°
2026-05-04 21:24 52.32852 5.11146 39004 ft 454 kts 116°
2026-05-04 21:25 52.30249 5.20610 39001 ft 456 kts 117°
2026-05-04 21:25 52.27554 5.29958 38929 ft 456 kts 118°
2026-05-04 21:26 52.26188 5.34661 38472 ft 453 kts 118°
2026-05-04 21:26 52.24837 5.39309 37950 ft 450 kts 118°
2026-05-04 21:26 52.23495 5.43926 37397 ft 449 kts 118°
2026-05-04 21:26 52.22172 5.48480 36828 ft 447 kts 118°
2026-05-04 21:27 52.20844 5.53044 36253 ft 446 kts 118°
2026-05-04 21:27 52.19501 5.57654 35672 ft 446 kts 119°
2026-05-04 21:27 52.18181 5.62181 35118 ft 445 kts 119°
2026-05-04 21:27 52.16848 5.66743 34564 ft 444 kts 119°
2026-05-04 21:28 52.15526 5.71258 34022 ft 443 kts 120°
2026-05-04 21:28 52.14197 5.75788 33371 ft 442 kts 120°
2026-05-04 21:28 52.12874 5.80287 32703 ft 442 kts 119°
2026-05-04 21:28 52.11531 5.84851 32011 ft 443 kts 119°
2026-05-04 21:29 52.10210 5.89336 31317 ft 444 kts 119°
2026-05-04 21:29 52.08863 5.93904 30613 ft 445 kts 118°
2026-05-04 21:29 52.07529 5.98419 29890 ft 446 kts 118°
2026-05-04 21:29 52.06191 6.02939 29053 ft 447 kts 118°
2026-05-04 21:30 52.04830 6.07530 28248 ft 447 kts 118°
2026-05-04 21:30 52.03482 6.12073 27574 ft 445 kts 118°
2026-05-04 21:30 52.02142 6.16580 26969 ft 441 kts 118°
2026-05-04 21:30 52.00823 6.21000 26386 ft 437 kts 118°
2026-05-04 21:31 51.98182 6.29805 25250 ft 429 kts 118°
2026-05-04 21:31 51.96869 6.34106 24713 ft 425 kts 120°
2026-05-04 21:31 51.95426 6.38328 24152 ft 421 kts 122°
2026-05-04 21:32 51.93968 6.42382 23617 ft 417 kts 123°
2026-05-04 21:32 51.92491 6.46442 22986 ft 414 kts 123°
2026-05-04 21:32 51.91039 6.50412 22374 ft 411 kts 123°
2026-05-04 21:32 51.89583 6.54376 21758 ft 407 kts 123°
2026-05-04 21:33 51.88132 6.58299 21168 ft 403 kts 123°
2026-05-04 21:33 51.86692 6.62175 20573 ft 400 kts 123°
2026-05-04 21:33 51.85256 6.66025 19987 ft 396 kts 123°
2026-05-04 21:33 51.83836 6.69815 19411 ft 393 kts 123°
2026-05-04 21:34 51.82416 6.73591 18844 ft 390 kts 123°
2026-05-04 21:34 51.81009 6.77322 18282 ft 387 kts 123°
2026-05-04 21:34 51.79623 6.80988 17660 ft 384 kts 123°
2026-05-04 21:34 51.78226 6.84671 17022 ft 381 kts 123°
2026-05-04 21:35 51.76839 6.88319 16430 ft 377 kts 123°
2026-05-04 21:35 51.75478 6.91886 15846 ft 374 kts 123°
2026-05-04 21:35 51.74116 6.95446 15262 ft 370 kts 123°
2026-05-04 21:35 51.72760 6.98979 14703 ft 367 kts 123°
2026-05-04 21:36 51.71424 7.02454 14163 ft 363 kts 123°
2026-05-04 21:36 51.70098 7.05890 13597 ft 360 kts 123°
2026-05-04 21:36 51.68788 7.09281 12983 ft 357 kts 123°
2026-05-04 21:36 51.67480 7.12670 12373 ft 354 kts 123°
2026-05-04 21:37 51.66180 7.16049 11790 ft 352 kts 123°
2026-05-04 21:37 51.64896 7.19399 11211 ft 349 kts 123°
2026-05-04 21:37 51.63632 7.22718 10638 ft 346 kts 123°
2026-05-04 21:37 51.62389 7.25996 10237 ft 339 kts 123°
2026-05-04 21:38 51.61188 7.29181 10029 ft 325 kts 123°
2026-05-04 21:38 51.60042 7.32246 9855 ft 312 kts 123°
2026-05-04 21:38 51.58964 7.35157 9664 ft 299 kts 123°
2026-05-04 21:38 51.57918 7.38003 9429 ft 289 kts 123°
2026-05-04 21:39 51.56920 7.40734 9062 ft 285 kts 123°
2026-05-04 21:39 51.55914 7.43502 8647 ft 283 kts 123°
2026-05-04 21:39 51.54890 7.46177 8220 ft 279 kts 131°
2026-05-04 21:39 51.53407 7.48086 7825 ft 269 kts 159°
2026-05-04 21:40 51.51609 7.48651 7393 ft 263 kts 186°
2026-05-04 21:40 51.49898 7.47776 7036 ft 259 kts 213°
2026-05-04 21:40 51.48669 7.45726 6632 ft 260 kts 238°
2026-05-04 21:40 51.47953 7.43147 6473 ft 246 kts 247°
2026-05-04 21:41 51.47374 7.40572 6095 ft 241 kts 248°
2026-05-04 21:41 51.46883 7.38017 5636 ft 242 kts 255°
2026-05-04 21:41 51.46569 7.35356 5193 ft 241 kts 258°
2026-05-04 21:41 51.46298 7.32778 4927 ft 231 kts 258°
2026-05-04 21:42 51.46038 7.30295 4670 ft 221 kts 258°
2026-05-04 21:42 51.45865 7.28657 4305 ft 228 kts 258°
2026-05-04 21:42 51.45593 7.26121 4047 ft 230 kts 258°
2026-05-04 21:42 51.45316 7.23580 4020 ft 229 kts 258°
2026-05-04 21:43 51.45044 7.21087 4023 ft 229 kts 258°
2026-05-04 21:43 51.44770 7.18575 4024 ft 228 kts 258°
2026-05-04 21:43 51.44495 7.16066 4021 ft 228 kts 258°
2026-05-04 21:43 51.44224 7.13567 4012 ft 227 kts 258°
2026-05-04 21:44 51.43949 7.11042 4012 ft 228 kts 258°
2026-05-04 21:44 51.43689 7.08638 4013 ft 208 kts 258°
2026-05-04 21:44 51.43448 7.06482 4016 ft 188 kts 253°
2026-05-04 21:44 51.42859 7.04654 4017 ft 183 kts 232°
2026-05-04 21:45 51.42044 7.03121 4024 ft 182 kts 225°
2026-05-04 21:45 51.41152 7.01657 4012 ft 182 kts 224°
2026-05-04 21:45 51.40272 7.00230 3924 ft 181 kts 224°
2026-05-04 21:45 51.39412 6.98717 3415 ft 186 kts 230°
2026-05-04 21:46 51.38626 6.97054 2946 ft 185 kts 232°
2026-05-04 21:46 51.37854 6.95414 2479 ft 185 kts 231°
2026-05-04 21:46 51.37070 6.93793 2095 ft 182 kts 231°
2026-05-04 21:46 51.36297 6.92197 2011 ft 179 kts 231°
2026-05-04 21:47 51.35543 6.90642 2006 ft 180 kts 231°
2026-05-04 21:47 51.34742 6.89096 2000 ft 180 kts 226°
2026-05-04 21:47 51.33895 6.87632 1894 ft 177 kts 226°
2026-05-04 21:47 51.33118 6.86173 1660 ft 166 kts 231°
2026-05-04 21:48 51.32447 6.84710 1338 ft 162 kts 232°
2026-05-04 21:48 51.31783 6.83266 994 ft 159 kts 232°
2026-05-04 21:48 51.31150 6.81882 736 ft 151 kts 232°
2026-05-04 21:48 51.30514 6.80555 514 ft 149 kts 231°
2026-05-04 21:49 51.29879 6.79242 359 ft 150 kts 232°
2026-05-04 21:49 51.29251 6.77905 237 ft 152 kts 230°
2026-05-04 21:49 51.28631 6.76624 142 ft 131 kts 231°
2026-05-04 21:49 51.28262 6.75838 135 ft 31 kts 233°
2026-05-04 21:50 51.28179 6.75662 132 ft 21 kts 232°
2026-05-04 21:50 51.28045 6.75506 129 ft 27 kts 176°
2026-05-04 21:50 51.27944 6.75611 132 ft 8 kts 99°
2026-05-04 21:50 51.27972 6.75690 134 ft 13 kts 53°
2026-05-04 21:51 51.28009 6.75766 134 ft 0 kts 52°
2026-05-04 21:54 51.28013 6.75775 134 ft 6 kts 52°
2026-05-04 21:54 51.28075 6.75905 137 ft 23 kts 52°
2026-05-04 21:54 51.28180 6.76125 136 ft 25 kts 53°
2026-05-04 21:54 51.28284 6.76346 135 ft 25 kts 52°
2026-05-04 21:55 51.28304 6.76483 135 ft 4 kts 158°
2026-05-04 21:55 51.28274 6.76481 135 ft 8 kts 197°
2026-05-04 21:55 51.28214 6.76387 136 ft 18 kts 233°
2026-05-04 21:55 51.28148 6.76255 137 ft 14 kts 232°
2026-05-04 21:56 51.28096 6.76187 136 ft 6 kts 168°
2026-05-04 21:56 51.28051 6.76215 136 ft 3 kts 162°
2026-05-04 21:56 51.28044 6.76219 136 ft 0 kts 162°